Volver al catálogo

STARLINK-33605

ActivoComunicacionesVLEO
NORAD 63074·PAYLOAD·🇺🇸 United States

Lanzado Feb 21, 2025 desde Cape Canaveral Space Force Station

Loading…

Próximos Pases (próximas 24 horas)

TLE

ActualizadoSource: CelesTrak SupGP

Época: Sep 14, 2026, 21:28 UTC

1 63074C 25035Y   26257.89493056 -.00035632  00000+0 -12908-2 0  2570
2 63074  43.0007 158.3644 0001643 266.5950 261.2090 15.27591002    17

Sigue STARLINK-33605 en tiempo real con AllMySat

Download on the App Store